Weather reports worldwide

Advertisment
Geisenheim, Germany (10628): temperature & dewpoint: 18.06.2018 16:00:00 - 24.06.2018 16:00:00 (CEST)Geisenheim, Germany (10628): temperature 5cm & temperature -5cm: 18.06.2018 16:00:00 - 24.06.2018 16:00:00 (CEST)Geisenheim, Germany (10628): temperature -20cm & temperature -100cm: 18.06.2018 16:00:00 - 24.06.2018 16:00:00 (CEST)Geisenheim, Germany (10628): wind speed & gusts: 18.06.2018 16:00:00 - 24.06.2018 16:00:00 (CEST)Geisenheim, Germany (10628): wind direction: 18.06.2018 16:00:00 - 24.06.2018 16:00:00 (CEST)Geisenheim, Germany (10628): reduced air pressure: 18.06.2018 16:00:00 - 24.06.2018 16:00:00 (CEST)Geisenheim, Germany (10628): visibility: 18.06.2018 16:00:00 - 24.06.2018 16:00:00 (CEST)Geisenheim, Germany (10628): sunshine duration: 18.06.2018 16:00:00 - 24.06.2018 16:00:00 (CEST)Geisenheim, Germany (10628): precipitation: 18.06.2018 16:00:00 - 24.06.2018 16:00:00 (CEST)
Date & Time tt [°C] td [°C] tt 5cm [°C] tt -5cm [°C] tt -20cm [°C] tt -100cm [°C] ff [km/h] ff [kn] fx [km/h] fx [kn] dd ppp [hPa] vv [km] sd [min] rr [mm]
24.06.2018 16:00:00 20,2 8,3 23,4 26,0 20,7 19,4 22 12 34 18 NNW 1021,0 28 41 0,0
24.06.2018 15:00:00 20,4 8,4 24,5 25,4 20,2 19,4 16 9 29 15 NNW 1021,2 25 51 0,0
24.06.2018 14:00:00 19,7 7,7 23,3 24,3 19,7 19,4 16 9 28 15 NW 1021,4 32 42 0,0
24.06.2018 13:00:00 20,3 8,0 25,7 22,6 19,4 19,5 14 7 21 12 N 1021,7 26 30 0,0
24.06.2018 12:00:00 18,8 9,8 23,3 21,1 19,1 19,5 8 4 18 10 NW 1022,1 30 12 0,0
24.06.2018 11:00:00 18,0 9,9 22,1 20,4 18,8 19,5 7 4 12 6 S 1022,2 36 14 0,0
24.06.2018 10:00:00 16,5 10,4 20,9 18,5 18,7 19,5 7 4 10 5 S 1022,6 35 44 0,0
24.06.2018 09:00:00 14,1 10,4 16,4 17,0 18,8 19,5 4 2 7 4 SSW 1022,9 30 4 0,0
24.06.2018 08:00:00 12,2 9,6 13,2 16,3 18,9 19,5 4 2 8 4 SW 1022,9 27 0 0,0
24.06.2018 07:00:00 11,5 9,3 11,8 16,0 19,1 19,5 4 2 8 4 SSW 1022,9 27 4 0,0
24.06.2018 06:00:00 11,1 9,2 10,5 15,9 19,4 19,5 3 2 8 4 SSW 1022,9 22 0 0,0
24.06.2018 05:00:00 11,2 8,7 10,4 16,0 19,6 19,5 7 4 11 6 NNW 1023,0 32 0 0,0
24.06.2018 04:00:00 11,5 8,8 10,6 16,4 19,9 19,5 9 5 12 7 N 1023,4 30 0 0,0
24.06.2018 03:00:00 11,7 8,8 9,6 16,8 20,2 19,6 6 3 10 5 N 1023,6 33 0 0,0
24.06.2018 02:00:00 11,6 9,0 9,5 17,3 20,5 19,6 2 1 7 4 N 1024,2 27 0 0,0
24.06.2018 01:00:00 12,9 9,3 10,5 18,0 20,8 19,6 4 2 9 5 NNE 1024,5 36 0 0,0
24.06.2018 00:00:00 12,7 9,2 10,2 18,5 21,1 19,6 4 2 16 9 NE 1024,7 35 0 0,0
23.06.2018 23:00:00 13,3 9,0 12,0 19,3 21,4 19,6 13 7 17 9 N 1024,9 39 0 0,0
23.06.2018 22:00:00 14,1 8,7 11,6 20,4 21,5 19,6 7 4 16 9 NNW 1024,8 47 6 0,0
23.06.2018 21:00:00 15,5 8,5 14,6 21,8 21,6 19,6 13 7 26 14 NW 1024,6 54 35 0,0
23.06.2018 20:00:00 16,5 8,1 17,2 23,0 21,5 19,6 16 9 35 19 NW 1024,5 57 46 0,0
23.06.2018 19:00:00 18,1 8,3 20,5 23,5 21,4 19,7 19 10 32 18 NW 1024,6 43 55 0,0
23.06.2018 18:00:00 17,5 8,9 20,3 23,5 21,3 19,7 18 10 36 19 NNW 1025,3 42 19 0,0
23.06.2018 17:00:00 17,3 8,1 21,6 23,5 21,0 19,7 10 6 31 17 WNW 1025,6 52 10 0,0
23.06.2018 16:00:00 16,6 7,6 18,5 24,1 20,7 19,7 20 11 33 18 NNW 1026,1 45 2 0,0
23.06.2018 15:00:00 17,2 7,5 20,9 25,2 20,1 19,7 24 13 41 22 NNW 1026,2 21 57 0,0
23.06.2018 14:00:00 18,2 7,9 22,6 24,3 19,6 19,7 22 12 37 20 NNW 1026,1 19 56 0,0
23.06.2018 13:00:00 17,1 7,0 22,4 22,8 19,1 19,7 13 7 33 18 NNW 1026,5 38 30 0,0
23.06.2018 12:00:00 16,5 6,6 21,5 21,7 18,7 19,7 14 8 29 16 NW 1026,4 36 57 0,0
23.06.2018 11:00:00 16,0 5,9 21,3 19,8 18,3 19,7 18 10 34 19 WNW 1026,8 22 60 0,0
23.06.2018 10:00:00 14,4 6,5 18,7 17,9 18,2 19,7 14 8 28 15 WNW 1027,1 24 52 0,0
23.06.2018 09:00:00 13,4 6,8 16,1 16,0 18,2 19,8 15 8 22 12 WNW 1027,5 23 37 0,0
23.06.2018 08:00:00 11,9 7,1 12,0 15,0 18,4 19,8 10 5 22 12 NW 1027,3 18 1 0,0
23.06.2018 07:00:00 11,2 7,6 11,2 14,4 18,6 19,8 0 0 6 4 N 1027,3 17 1 0,0
23.06.2018 06:00:00 9,7 7,1 6,9 14,3 18,9 19,8 5 3 12 6 NW 1027,2 14 0 0,0
23.06.2018 05:00:00 9,9 7,2 6,7 14,7 19,2 19,8 4 2 11 6 WSW 1027,0 16 0 0,0
23.06.2018 04:00:00 10,6 7,5 7,8 15,1 19,5 19,8 5 3 14 7 W 1026,8 21 0 0,0
23.06.2018 03:00:00 11,4 7,6 7,8 15,6 19,8 19,8 4 2 20 11 ESE 1026,7 27 0 0,0
23.06.2018 02:00:00 11,4 7,6 8,4 16,1 20,2 19,8 6 3 13 7 W 1026,8 51 0 0,0
23.06.2018 01:00:00 12,2 7,5 9,5 16,8 20,5 19,8 6 3 22 12 WNW 1027,0 70 0 0,0
23.06.2018 00:00:00 12,2 7,4 8,8 17,4 20,8 19,8 6 3 18 10 WNW 1026,9 59 0 0,0
22.06.2018 23:00:00 12,3 7,0 10,3 18,2 21,0 19,8 9 5 14 7 W 1026,7 70 0 0,0
22.06.2018 22:00:00 13,7 6,9 9,9 19,3 21,2 19,8 4 2 14 8 W 1026,4 70 11 0,0
22.06.2018 21:00:00 15,4 6,7 13,7 20,5 21,2 19,8 6 3 23 13 NW 1025,9 70 54 0,0
22.06.2018 20:00:00 16,3 6,5 16,8 21,4 21,2 19,8 14 7 31 17 NW 1025,6 69 49 0,0
22.06.2018 19:00:00 17,1 6,4 18,8 21,6 21,1 19,8 18 10 36 19 NW 1025,5 34 25 0,0
22.06.2018 18:00:00 16,7 6,3 18,5 22,5 20,9 19,8 23 12 40 22 NNW 1025,5 48 44 0,0
22.06.2018 17:00:00 17,7 7,1 21,8 22,1 20,7 19,8 22 12 34 18 NNW 1025,4 42 20 0,0
22.06.2018 16:00:00 16,4 6,4 18,3 22,3 20,5 19,8 22 12 42 23 NNW 1025,5 45 33 0,0
22.06.2018 15:00:00 16,4 7,0 19,1 21,2 20,3 19,8 19 10 41 22 NW 1025,3 24 22 0,0
22.06.2018 14:00:00 14,9 6,5 16,4 20,1 20,2 19,8 18 10 29 16 WNW 1025,6 56 1 0,0
22.06.2018 13:00:00 14,8 6,0 16,7 19,8 20,1 19,8 27 15 39 21 WNW 1025,4 32 - 0,0
22.06.2018 12:00:00 14,0 5,6 15,3 19,1 20,0 19,8 15 8 35 19 NW 1025,5 34 - 0,0
22.06.2018 11:00:00 15,1 6,3 19,3 18,5 20,0 19,8 16 9 33 18 NW 1025,1 32 - 0,0
22.06.2018 10:00:00 13,6 5,8 15,1 18,0 20,1 19,8 17 9 30 16 NW 1024,9 37 - 0,0
22.06.2018 09:00:00 12,9 5,5 14,1 17,5 20,2 19,7 14 8 28 15 WNW 1024,9 34 - 0,0
22.06.2018 08:00:00 12,1 5,5 12,7 16,9 20,4 19,7 16 8 27 15 W 1024,8 36 - 0,0
22.06.2018 07:00:00 11,4 5,7 11,8 16,4 20,7 19,7 9 5 16 9 WSW 1024,8 33 - 0,0
22.06.2018 06:00:00 10,7 5,2 10,2 16,2 21,0 19,7 10 5 19 11 W 1025,0 34 - 0,0
22.06.2018 05:00:00 9,4 5,5 8,4 16,4 21,4 19,7 12 7 21 12 NW 1025,0 30 - 0,0
22.06.2018 04:00:00 9,6 5,3 8,2 16,9 21,8 19,7 15 8 28 15 NW 1025,0 31 - 0,0
22.06.2018 03:00:00 10,3 5,3 8,3 17,6 22,2 19,7 10 6 23 12 NW 1025,0 31 - 0,0
22.06.2018 02:00:00 11,7 5,5 10,1 18,3 22,6 19,7 12 7 23 12 WNW 1024,7 32 - 0,0
22.06.2018 01:00:00 12,2 6,0 10,5 18,9 23,1 19,7 7 4 27 15 W 1024,3 33 - 0,0
22.06.2018 00:00:00 12,7 5,2 10,8 19,7 23,5 19,6 12 6 31 17 WNW 1023,9 39 - 0,0
21.06.2018 23:00:00 13,3 4,3 11,6 20,7 23,9 19,6 13 7 27 14 NW 1023,5 38 - 0,0
21.06.2018 22:00:00 14,2 3,7 12,6 21,9 24,2 19,6 15 8 34 18 NW 1022,7 38 - 0,0
21.06.2018 21:00:00 15,8 3,3 14,3 23,4 24,5 19,6 16 9 43 23 NW 1021,9 39 - 0,0
21.06.2018 20:00:00 17,6 2,9 18,0 25,0 24,5 19,6 19 10 40 22 NNW 1021,1 25 - 0,0
21.06.2018 19:00:00 18,8 2,9 20,0 26,2 24,5 19,6 25 14 47 26 NNW 1020,3 20 - 0,0
21.06.2018 18:00:00 19,7 2,6 21,9 27,2 24,3 19,6 25 13 46 25 NNW 1019,7 19 - 0,0
21.06.2018 17:00:00 20,5 3,4 23,4 27,6 24,0 19,6 29 15 45 24 NNW 1019,1 18 - 0,0
21.06.2018 16:00:00 21,5 8,2 25,3 27,4 23,7 19,5 27 15 49 26 NNW 1018,2 18 - 0,0
21.06.2018 15:00:00 21,7 8,6 25,2 26,8 23,5 19,5 30 16 48 26 NW 1017,6 21 - 0,0
21.06.2018 14:00:00 21,4 12,6 24,3 25,8 23,3 19,5 27 14 40 21 NNW 1017,2 31 - 0,0
21.06.2018 13:00:00 18,6 14,1 20,0 23,9 23,2 19,5 15 8 47 25 NW 1017,4 17 - 0,0
21.06.2018 12:00:00 19,8 13,6 20,7 25,5 23,0 19,5 32 17 47 26 NNW 1016,6 28 - 0,0
21.06.2018 11:00:00 23,0 13,6 25,6 24,3 22,8 19,5 29 15 45 25 WNW 1015,6 26 53 0,0
21.06.2018 10:00:00 22,8 12,8 25,1 23,2 22,8 19,4 13 7 29 16 WNW 1015,1 42 31 0,0
21.06.2018 09:00:00 21,5 14,0 22,8 22,2 22,9 19,4 9 5 20 11 W 1015,3 25 41 0,0
21.06.2018 08:00:00 19,5 14,7 20,1 21,1 23,1 19,4 6 4 13 7 SW 1015,6 33 38 0,0
21.06.2018 07:00:00 18,0 14,5 17,3 20,7 23,4 19,4 4 2 14 7 SW 1015,6 28 46 0,0
21.06.2018 06:00:00 17,0 14,3 15,2 20,9 23,7 19,4 6 4 9 5 W 1015,6 28 0 0,0
21.06.2018 05:00:00 17,5 14,4 15,2 21,4 24,1 19,4 4 2 10 5 W 1015,9 28 0 0,0
21.06.2018 04:00:00 17,6 14,5 15,5 21,9 24,5 19,4 4 2 10 6 W 1016,3 47 0 0,0
21.06.2018 03:00:00 17,8 14,7 16,0 22,5 24,9 19,4 8 5 13 7 NW 1016,4 43 0 0,0
21.06.2018 02:00:00 18,2 14,3 16,3 23,3 25,3 19,4 9 5 11 6 NW 1016,9 47 0 0,0
21.06.2018 01:00:00 19,2 15,3 17,1 24,2 25,7 19,4 7 4 10 6 W 1017,0 45 0 0,0
21.06.2018 00:00:00 20,8 15,2 17,9 25,2 26,1 19,4 6 3 10 5 W 1017,2 48 0 0,0
20.06.2018 23:00:00 22,4 14,2 19,2 26,4 26,4 19,4 4 2 14 8 NNW 1017,3 59 0 0,0
20.06.2018 22:00:00 22,5 15,0 20,4 28,0 26,6 19,4 6 3 16 9 NW 1017,1 29 10 0,0
20.06.2018 21:00:00 25,5 15,8 23,9 30,0 26,7 19,4 11 6 13 7 NNW 1016,9 56 55 0,0
20.06.2018 20:00:00 28,8 14,6 29,4 31,8 26,6 19,4 8 4 12 7 WNW 1017,0 60 36 0,0
20.06.2018 19:00:00 29,1 14,4 31,8 33,2 26,3 19,4 7 4 13 7 S 1017,3 61 29 0,0
20.06.2018 18:00:00 29,3 15,9 33,7 34,0 25,8 19,4 6 3 14 8 SE 1017,8 43 29 0,0
20.06.2018 17:00:00 28,4 14,9 33,7 34,4 25,2 19,4 10 5 18 10 SSW 1018,5 57 43 0,0
20.06.2018 16:00:00 28,3 15,2 34,9 34,2 24,4 19,4 7 4 16 9 S 1019,1 55 60 0,0
20.06.2018 15:00:00 27,2 14,8 35,3 33,4 23,7 19,4 8 4 13 7 S 1019,8 30 60 0,0
20.06.2018 14:00:00 26,5 14,9 33,6 32,0 22,9 19,4 7 4 14 8 S 1020,5 42 60 0,0
20.06.2018 13:00:00 25,8 14,7 33,8 30,1 22,2 19,4 4 2 13 7 SW 1021,2 38 59 0,0
20.06.2018 12:00:00 24,6 14,4 30,7 27,9 21,6 19,3 5 3 12 7 SSW 1021,8 43 59 0,0
20.06.2018 11:00:00 23,9 14,9 29,2 25,6 21,3 19,3 6 3 13 7 S 1022,1 33 56 0,0
20.06.2018 10:00:00 22,6 15,2 26,7 23,2 21,1 19,3 6 3 12 6 ESE 1022,5 25 55 0,0
20.06.2018 09:00:00 21,0 15,2 23,7 21,5 21,0 19,3 6 3 10 5 ESE 1022,8 34 43 0,0
20.06.2018 08:00:00 19,9 15,6 21,5 20,4 21,0 19,3 3 2 5 3 ESE 1023,0 32 10 0,0
20.06.2018 07:00:00 18,0 16,2 18,4 19,8 21,2 19,3 0 0 5 3 N 1023,2 28 0 0,0
20.06.2018 06:00:00 17,2 16,1 17,0 19,7 21,3 19,3 3 1 7 4 W 1023,3 23 0 0,0
20.06.2018 05:00:00 17,4 15,5 17,0 20,0 21,5 19,4 7 4 8 4 NNW 1023,4 32 0 0,0
20.06.2018 04:00:00 17,8 16,2 17,1 20,2 21,7 19,4 5 3 7 4 WSW 1023,6 27 0 0,0
20.06.2018 03:00:00 18,1 15,7 17,4 20,4 21,8 19,4 5 3 8 5 NW 1023,9 35 0 0,0
20.06.2018 02:00:00 18,1 15,6 17,5 20,7 22,1 19,4 6 3 8 5 NNW 1024,1 36 0 0,0
20.06.2018 01:00:00 18,2 15,5 17,7 20,9 22,3 19,4 6 4 13 7 NNW 1024,1 39 0 0,0
20.06.2018 00:00:00 18,4 15,5 17,2 21,3 22,5 19,4 10 5 13 7 N 1024,1 38 0 0,0
19.06.2018 23:00:00 18,6 15,7 17,2 22,0 22,7 19,4 10 5 12 6 N 1023,9 42 0 0,0
19.06.2018 22:00:00 19,2 15,9 17,7 23,0 22,8 19,4 6 4 9 5 N 1023,7 49 0 0,0
19.06.2018 21:00:00 21,3 16,3 19,2 24,1 22,8 19,4 5 3 6 4 N 1023,4 61 10 0,0
19.06.2018 20:00:00 22,4 15,5 21,4 25,4 22,7 19,4 5 3 14 7 NW 1023,4 60 9 0,0
19.06.2018 19:00:00 23,5 15,3 24,9 26,0 22,5 19,4 7 4 13 7 NW 1023,6 70 0 0,0
19.06.2018 18:00:00 23,7 15,8 25,7 26,5 22,2 19,4 8 4 15 8 NNW 1023,7 69 5 0,0
19.06.2018 17:00:00 23,6 15,4 26,4 26,4 21,8 19,4 9 5 16 9 WNW 1023,9 69 17 0,0
19.06.2018 16:00:00 23,2 14,9 26,7 25,5 21,5 19,4 3 2 13 7 W 1024,1 70 13 0,0
19.06.2018 15:00:00 22,2 14,5 23,9 24,7 21,2 19,4 8 4 11 6 SSW 1024,2 65 1 0,0
19.06.2018 14:00:00 22,0 14,6 24,4 24,6 20,8 19,4 7 4 14 8 SW 1024,3 64 0 0,0
19.06.2018 13:00:00 22,1 14,0 25,6 24,2 20,4 19,4 4 2 11 6 NNW 1024,3 66 6 0,0
19.06.2018 12:00:00 21,1 14,6 25,0 22,3 20,2 19,4 9 5 16 9 S 1024,3 68 12 0,0
19.06.2018 11:00:00 20,2 14,2 22,1 21,0 20,0 19,4 8 4 19 11 NNW 1024,4 68 0 0,0
19.06.2018 10:00:00 19,6 14,6 20,9 20,6 19,8 19,4 16 8 23 13 WNW 1024,2 49 13 0,0
19.06.2018 09:00:00 19,8 13,5 22,2 19,2 19,8 19,4 5 3 11 6 SW 1024,3 43 57 0,0
19.06.2018 08:00:00 17,6 13,7 17,5 17,9 19,9 19,4 4 2 6 3 SSW 1024,2 29 59 0,0
19.06.2018 07:00:00 16,2 13,9 15,0 17,0 20,2 19,4 2 1 5 3 SSE 1023,8 21 57 0,0
19.06.2018 06:00:00 14,4 13,7 12,1 17,0 20,4 19,4 3 1 4 2 WSW 1023,6 18 0 0,0
19.06.2018 05:00:00 14,3 13,5 12,0 17,4 20,6 19,4 2 1 5 3 SW 1023,3 19 0 0,0
19.06.2018 04:00:00 14,3 13,3 12,9 17,9 20,9 19,4 4 2 6 4 NW 1023,3 18 0 0,0
19.06.2018 03:00:00 15,1 13,6 14,2 18,3 21,2 19,4 6 3 9 5 NNW 1023,1 24 0 0,0
19.06.2018 02:00:00 15,2 13,4 13,6 18,7 21,4 19,4 5 3 7 4 NE 1023,0 34 0 0,0
19.06.2018 01:00:00 16,4 14,0 14,2 19,3 21,7 19,4 4 2 7 4 NW 1022,9 51 0 0,0
19.06.2018 00:00:00 17,3 14,0 14,7 20,0 21,9 19,4 5 3 12 7 WNW 1022,7 46 0 0,0
18.06.2018 23:00:00 18,6 13,7 16,5 20,8 22,1 19,4 9 5 19 11 WSW 1022,5 60 0 0,0
18.06.2018 22:00:00 20,2 13,7 18,4 21,6 22,2 19,4 12 7 21 11 WSW 1021,9 70 5 0,0
18.06.2018 21:00:00 21,1 13,9 20,6 22,5 22,3 19,4 9 5 22 12 WSW 1021,6 69 2 0,0
18.06.2018 20:00:00 21,3 13,2 21,2 23,0 22,3 19,4 14 8 22 12 WSW 1021,6 70 0 0,0
18.06.2018 19:00:00 21,5 13,2 22,1 23,4 22,2 19,4 11 6 19 10 W 1021,5 70 0 0,0
18.06.2018 18:00:00 21,6 13,2 22,6 23,5 22,2 19,4 10 5 19 10 WSW 1021,8 70 0 0,0
18.06.2018 17:00:00 21,5 12,4 22,4 24,1 22,0 19,4 8 4 20 11 SW 1022,0 70 0 0,0
18.06.2018 16:00:00 21,7 12,0 24,0 24,6 21,8 19,4 13 7 24 13 WSW 1022,0 70 1 0,0

tt = temperature
td = dewpoint
tt 5cm = temperature 5cm
tt -5cm = temperature -5cm
tt -20cm = temperature -20cm
tt -100cm = temperature -100cm
ff = wind speed
fx = gusts
dd = wind direction
ppp = reduced air pressure
vv = visibility
sd = sunshine duration
rr = precipitation

Next stations